STARLINK-34507

Last updated on Thu Jul 03 2025 00:02:07 GMT+0000 (Coordinated Universal Time)

1 64437U 25129AB 25183.58335648 -.01575924 00000+0 -18724-1 0 9991 2 64437 69.9999 351.5310 0003441 266.5913 49.1233 15.63985832 3688
UTC large
Height (km)
Speed (km/s)
/
Latitude / Longitude
Inclination (degrees)
Orbital Period (minutes)
Azimuth
Elevation
Range (km)
Doppler Factor

Next 0 passes for location: London (51.5072 / 0.1276)

Sorry there are no passes over London.